Pocatello, ID

3:17 PM MST on February 24, 2018 (GMT -0700)
Pocatello Regional

Weather History for KPIH - May, 2011

Change the Weather History Date:

Wednesday, May 25, 2011

  Actual Average Record
Temperature  
Mean Temperature 49 °F 56 °F  
Max Temperature 66 °F 71 °F 91 °F (2001)
Min Temperature 32 °F 42 °F 27 °F (1975)
Degree Days  
Heating Degree Days 16 9  
Month to date heating degree days 383 303  
Since 1 July heating degree days 7082 6997  
Cooling Degree Days 0 0  
Month to date cooling degree days 0 0  
Year to date cooling degree days 0 0  
Moisture  
Dew Point 34 °F    
Average Humidity 54    
Maximum Humidity 76    
Minimum Humidity 32    
Precipitation  
Precipitation 0.00 in 0.05 in 0.38 in (2015)
Month to date precipitation 1.71 1.18  
Year to date precipitation 6.64 5.55  
Snow  
Snow 0.00 in - - ()
Month to date snowfall T  
Since 1 July snowfall 52.9  
Snow Depth 0.00 in    
Sea Level Pressure  
Sea Level Pressure 29.93 in    
Wind  
Wind Speed 10 mph (South)    
Max Wind Speed 43 mph    
Max Gust Speed 53 mph    
Visibility 10 miles    
Events      
T = Trace of Precipitation, MM = Missing Value Source: NWS Daily Summary

Daily Weather History Graph

Daily Weather History Graph

Search for Another Location

Airport or City:

Trip Planner

Search our weather history database for the weather conditions in past years. The results will help you decide how hot, cold, wet, or windy it might be!

Date:

Astronomy

May. 25, 2011 Rise Set
Actual Time 5:58 AM MDT 8:56 PM MDT
Civil Twilight 5:25 AM MDT 9:30 PM MDT
Nautical Twilight 4:42 AM MDT 10:13 PM MDT
Astronomical Twilight 3:52 AM MDT 11:03 PM MDT
Moon 2:10 AM MDT (5/25) 2:14 PM MDT (5/25)
Length of Visible Light 16h 05m
Length of Day
14h 57m
Last Quarter, 41% of the Moon is Illuminated
May 25
Last Quarter
Jun 1
New
Jun 8
First Quarter
Jun 15
Full
Jun 23
Last Quarter

Hourly Weather History & Observations

Time (MDT) Temp. Windchill Dew Point Humidity Pressure Visibility Wind Dir Wind Speed Gust Speed Precip Events Conditions
12:53 AM 46.9 °F - 30.0 °F 52% 30.04 in 10.0 mi SSW 11.5 mph - N/A   Clear
1:53 AM 45.0 °F 39.7 °F 30.0 °F 56% 30.04 in 10.0 mi SSW 10.4 mph - N/A   Clear
2:53 AM 44.1 °F 39.0 °F 28.9 °F 55% 30.05 in 10.0 mi SSW 9.2 mph - N/A   Clear
3:53 AM 41.0 °F 34.7 °F 28.9 °F 62% 30.05 in 10.0 mi South 10.4 mph - N/A   Clear
4:53 AM 39.0 °F 34.8 °F 28.9 °F 67% 30.07 in 10.0 mi SSW 5.8 mph - N/A   Clear
5:53 AM 37.0 °F 34.5 °F 28.9 °F 73% 30.07 in 10.0 mi East 3.5 mph - N/A   Clear
6:53 AM 37.0 °F - 30.9 °F 79% 30.09 in 10.0 mi Calm Calm - N/A   Clear
7:53 AM 45.0 °F 41.8 °F 34.0 °F 65% 30.07 in 10.0 mi WNW 5.8 mph - N/A   Clear
8:53 AM 52.0 °F - 36.0 °F 54% 30.06 in 10.0 mi ENE 3.5 mph - N/A   Clear
9:53 AM 57.0 °F - 30.9 °F 37% 30.05 in 10.0 mi Calm Calm - N/A   Clear
10:53 AM 60.1 °F - 30.0 °F 32% 30.02 in 10.0 mi SE 5.8 mph - N/A   Clear
11:53 AM 61.0 °F - 33.1 °F 35% 30.01 in 10.0 mi SSW 10.4 mph - N/A   Partly Cloudy
12:53 PM 62.1 °F - 35.1 °F 37% 29.99 in 10.0 mi SSW 12.7 mph 18.4 mph N/A   Partly Cloudy
1:53 PM 63.0 °F - 36.0 °F 37% 29.97 in 10.0 mi South 13.8 mph 21.9 mph N/A   Scattered Clouds
2:53 PM 64.9 °F - 37.9 °F 37% 29.94 in 10.0 mi SSW 17.3 mph 23.0 mph N/A   Scattered Clouds
3:53 PM 63.0 °F - 39.0 °F 41% 29.93 in 10.0 mi South 15.0 mph 24.2 mph N/A   Scattered Clouds
4:53 PM 64.9 °F - 39.9 °F 40% 29.88 in 10.0 mi South 16.1 mph 24.2 mph N/A   Partly Cloudy
5:53 PM 64.0 °F - 39.9 °F 41% 29.84 in 10.0 mi SE 15.0 mph 21.9 mph N/A   Clear
6:53 PM 63.0 °F - 39.0 °F 41% 29.80 in 10.0 mi SSE 11.5 mph 20.7 mph N/A   Clear
7:53 PM 61.0 °F - 32.0 °F 34% 29.75 in 10.0 mi SE 8.1 mph - N/A   Clear
8:53 PM 55.9 °F - 35.1 °F 45% 29.72 in 10.0 mi SE 5.8 mph - N/A   Clear
9:53 PM 59.0 °F - 35.1 °F 41% 29.65 in 10.0 mi SE 11.5 mph - N/A   Clear
10:53 PM 57.9 °F - 34.0 °F 41% 29.63 in 10.0 mi NNW 5.8 mph - N/A   Clear
11:53 PM 53.1 °F - 36.0 °F 52% 29.62 in 10.0 mi Variable 4.6 mph - N/A   Scattered Clouds